Location: Unspecified
(0.0000°N, 0.0000°E)
Time: 23:22:25
(UTC+00:00)

deb S5M - Pass Details

Date: 23 June 2024
Orbit: 775 x 867 km, 82.5° (Epoch: 14 July)

Event Time Altitude Azimuth Distance (km) Brightness Sun altitude
Exits shadow 04:45:12 27° 267° (W) 1,535 ? -17.6°
Maximum altitude 04:45:34 27° 274° (W) 1,529 ? -17.6°
Drops below altitude 10° 04:50:10 10° 331° (NNW) 2,445 ? -16.5°
Sets 04:52:57 0° 343° (NNW) 3,392 ? -15.9°
